Time,TemperatureF,DewpointF,PressureIn,WindDirection,WindDirectionDegrees,WindSpeedMPH,WindSpeedGustMPH,Humidity,HourlyPrecipIn,Conditions,Clouds,dailyrainin,SoftwareType,DateUTC
2013-03-30 00:00:00,36.8,29.0,30.08,WNW,295,0.0,0.0,73,0.00,,,0.00,VWS V14.01,2013-03-30 04:00:00,
2013-03-30 00:05:00,36.8,29.0,30.09,WNW,295,0.0,0.0,73,0.00,,,0.00,VWS V14.01,2013-03-30 04:05:00,
2013-03-30 00:10:00,36.9,29.1,30.08,WNW,295,0.0,1.0,73,0.00,,,0.00,VWS V14.01,2013-03-30 04:10:00,
2013-03-30 00:15:00,36.8,29.0,30.08,WNW,295,0.0,0.0,73,0.00,,,0.00,VWS V14.01,2013-03-30 04:15:00,
2013-03-30 00:20:00,36.8,29.0,30.09,WNW,295,0.0,2.0,73,0.00,,,0.00,VWS V14.01,2013-03-30 04:20:00,
2013-03-30 00:25:00,36.7,28.9,30.09,WNW,295,1.0,1.0,73,0.00,,,0.00,VWS V14.01,2013-03-30 04:25:00,
2013-03-30 00:30:00,36.8,29.0,30.09,West,262,1.0,3.0,73,0.00,,,0.00,VWS V14.01,2013-03-30 04:30:00,
2013-03-30 00:35:00,36.8,29.0,30.09,WSW,239,0.0,0.0,73,0.00,,,0.00,VWS V14.01,2013-03-30 04:35:00,
2013-03-30 00:40:00,36.8,29.3,30.08,WSW,239,0.0,1.0,74,0.00,,,0.00,VWS V14.01,2013-03-30 04:40:00,
2013-03-30 00:45:00,36.5,28.7,30.08,WSW,239,0.0,0.0,73,0.00,,,0.00,VWS V14.01,2013-03-30 04:45:00,
2013-03-30 00:50:00,36.4,28.6,30.08,WSW,239,0.0,3.0,73,0.00,,,0.00,VWS V14.01,2013-03-30 04:50:00,
2013-03-30 00:55:00,36.2,28.7,30.08,WSW,239,0.0,0.0,74,0.00,,,0.00,VWS V14.01,2013-03-30 04:55:00,
2013-03-30 01:00:00,36.0,28.5,30.08,WSW,239,0.0,3.0,74,0.00,,,0.00,VWS V14.01,2013-03-30 05:00:00,
2013-03-30 01:05:00,36.0,28.5,30.08,WSW,239,1.0,1.0,74,0.00,,,0.00,VWS V14.01,2013-03-30 05:05:00,
2013-03-30 01:10:00,36.0,28.5,30.08,SW,234,0.0,5.0,74,0.00,,,0.00,VWS V14.01,2013-03-30 05:10:00,
2013-03-30 01:15:00,36.2,28.4,30.08,SW,233,0.0,1.0,73,0.00,,,0.00,VWS V14.01,2013-03-30 05:15:00,
2013-03-30 01:20:00,36.2,28.4,30.08,SW,236,0.0,1.0,73,0.00,,,0.00,VWS V14.01,2013-03-30 05:20:00,
2013-03-30 01:25:00,36.1,28.6,30.08,SW,236,0.0,0.0,74,0.00,,,0.00,VWS V14.01,2013-03-30 05:25:00,
2013-03-30 01:30:00,35.9,28.4,30.08,SW,236,0.0,1.0,74,0.00,,,0.00,VWS V14.01,2013-03-30 05:30:00,
2013-03-30 01:35:00,35.5,28.4,30.08,SW,236,0.0,0.0,75,0.00,,,0.00,VWS V14.01,2013-03-30 05:35:00,
2013-03-30 01:40:00,35.3,28.2,30.08,SW,236,0.0,0.0,75,0.00,,,0.00,VWS V14.01,2013-03-30 05:40:00,
2013-03-30 01:45:00,35.2,28.1,30.08,SW,236,0.0,0.0,75,0.00,,,0.00,VWS V14.01,2013-03-30 05:45:00,
2013-03-30 01:50:00,35.0,28.2,30.08,SW,236,1.0,2.0,76,0.00,,,0.00,VWS V14.01,2013-03-30 05:50:00,
2013-03-30 01:55:00,34.8,28.0,30.08,SW,236,0.0,0.0,76,0.00,,,0.00,VWS V14.01,2013-03-30 05:55:00,
2013-03-30 02:00:00,34.7,27.9,30.08,SSW,200,0.0,2.0,76,0.00,,,0.00,VWS V14.01,2013-03-30 06:00:00,
2013-03-30 02:05:00,34.7,27.9,30.08,SSW,200,0.0,0.0,76,0.00,,,0.00,VWS V14.01,2013-03-30 06:05:00,
2013-03-30 02:10:00,34.6,27.8,30.08,SSW,200,0.0,1.0,76,0.00,,,0.00,VWS V14.01,2013-03-30 06:10:00,
2013-03-30 02:15:00,34.5,27.7,30.08,SSW,200,0.0,0.0,76,0.00,,,0.00,VWS V14.01,2013-03-30 06:15:00,
2013-03-30 02:20:00,34.4,27.6,30.08,SSW,200,0.0,1.0,76,0.00,,,0.00,VWS V14.01,2013-03-30 06:20:00,
2013-03-30 02:25:00,34.5,28.0,30.08,SSW,200,0.0,0.0,77,0.00,,,0.00,VWS V14.01,2013-03-30 06:25:00,
2013-03-30 02:30:00,34.4,27.6,30.08,SSW,200,0.0,1.0,76,0.00,,,0.00,VWS V14.01,2013-03-30 06:30:00,
2013-03-30 02:35:00,34.3,27.9,30.08,SW,234,0.0,0.0,77,0.00,,,0.00,VWS V14.01,2013-03-30 06:35:00,
2013-03-30 02:40:00,34.1,27.7,30.08,SW,234,0.0,0.0,77,0.00,,,0.00,VWS V14.01,2013-03-30 06:40:00,
2013-03-30 02:45:00,34.3,28.2,30.08,West,269,0.0,0.0,78,0.00,,,0.00,VWS V14.01,2013-03-30 06:45:00,
2013-03-30 02:50:00,34.7,28.2,30.08,West,269,0.0,2.0,77,0.00,,,0.00,VWS V14.01,2013-03-30 06:50:00,
2013-03-30 02:55:00,35.0,28.5,30.08,ENE,73,2.0,2.0,77,0.00,,,0.00,VWS V14.01,2013-03-30 06:55:00,
2013-03-30 03:00:00,35.1,28.3,30.08,ESE,106,0.0,2.0,76,0.00,,,0.00,VWS V14.01,2013-03-30 07:00:00,
2013-03-30 03:05:00,35.0,28.2,30.08,NW,309,0.0,2.0,76,0.00,,,0.00,VWS V14.01,2013-03-30 07:05:00,
2013-03-30 03:10:00,34.8,28.3,30.08,NW,309,0.0,2.0,77,0.00,,,0.00,VWS V14.01,2013-03-30 07:10:00,
2013-03-30 03:15:00,34.5,28.0,30.08,NW,309,3.0,3.0,77,0.00,,,0.00,VWS V14.01,2013-03-30 07:15:00,
2013-03-30 03:20:00,34.4,28.0,30.08,NW,309,0.0,3.0,77,0.00,,,0.00,VWS V14.01,2013-03-30 07:20:00,
2013-03-30 03:25:00,34.4,28.3,30.07,NW,309,0.0,0.0,78,0.00,,,0.00,VWS V14.01,2013-03-30 07:25:00,
2013-03-30 03:30:00,34.2,28.1,30.08,NW,309,0.0,1.0,78,0.00,,,0.00,VWS V14.01,2013-03-30 07:30:00,
2013-03-30 03:35:00,34.4,28.3,30.07,ESE,119,2.0,4.0,78,0.00,,,0.00,VWS V14.01,2013-03-30 07:35:00,
2013-03-30 03:40:00,34.7,28.2,30.07,SE,140,1.0,4.0,77,0.00,,,0.00,VWS V14.01,2013-03-30 07:40:00,
2013-03-30 03:45:00,34.8,28.3,30.07,SSE,154,0.0,0.0,77,0.00,,,0.00,VWS V14.01,2013-03-30 07:45:00,
2013-03-30 03:50:00,34.7,28.2,30.08,South,171,0.0,3.0,77,0.00,,,0.00,VWS V14.01,2013-03-30 07:50:00,
2013-03-30 03:55:00,34.7,27.9,30.08,South,172,1.0,2.0,76,0.00,,,0.00,VWS V14.01,2013-03-30 07:55:00,
2013-03-30 04:00:00,34.6,27.8,30.08,South,172,0.0,2.0,76,0.00,,,0.00,VWS V14.01,2013-03-30 08:00:00,
2013-03-30 04:05:00,34.3,27.9,30.07,South,172,0.0,2.0,77,0.00,,,0.00,VWS V14.01,2013-03-30 08:05:00,
2013-03-30 04:10:00,34.5,27.7,30.07,South,172,0.0,2.0,76,0.00,,,0.00,VWS V14.01,2013-03-30 08:10:00,
2013-03-30 04:15:00,34.4,27.6,30.08,South,172,0.0,0.0,76,0.00,,,0.00,VWS V14.01,2013-03-30 08:15:00,
2013-03-30 04:20:00,34.1,27.7,30.08,South,172,0.0,4.0,77,0.00,,,0.00,VWS V14.01,2013-03-30 08:20:00,
2013-03-30 04:25:00,33.8,27.4,30.08,South,172,0.0,0.0,77,0.00,,,0.00,VWS V14.01,2013-03-30 08:25:00,
2013-03-30 04:30:00,33.6,27.5,30.08,South,172,0.0,2.0,78,0.00,,,0.00,VWS V14.01,2013-03-30 08:30:00,
2013-03-30 04:35:00,33.7,27.6,30.08,South,185,0.0,1.0,78,0.00,,,0.00,VWS V14.01,2013-03-30 08:35:00,
2013-03-30 04:40:00,34.1,27.7,30.08,SSW,198,0.0,3.0,77,0.00,,,0.00,VWS V14.01,2013-03-30 08:40:00,
2013-03-30 04:45:00,34.0,27.6,30.08,SSW,198,0.0,1.0,77,0.00,,,0.00,VWS V14.01,2013-03-30 08:45:00,
2013-03-30 04:50:00,34.0,27.6,30.08,SSW,198,0.0,1.0,77,0.00,,,0.00,VWS V14.01,2013-03-30 08:50:00,
2013-03-30 04:55:00,34.2,27.4,30.08,SSW,209,0.0,0.0,76,0.00,,,0.00,VWS V14.01,2013-03-30 08:55:00,
2013-03-30 05:00:00,34.4,27.3,30.08,South,183,0.0,2.0,75,0.00,,,0.00,VWS V14.01,2013-03-30 09:00:00,
2013-03-30 05:05:00,34.4,27.3,30.08,South,183,1.0,1.0,75,0.00,,,0.00,VWS V14.01,2013-03-30 09:05:00,
2013-03-30 05:10:00,34.1,27.3,30.08,South,183,0.0,2.0,76,0.00,,,0.00,VWS V14.01,2013-03-30 09:10:00,
2013-03-30 05:15:00,34.3,26.9,30.08,North,9,0.0,0.0,74,0.00,,,0.00,VWS V14.01,2013-03-30 09:15:00,
2013-03-30 05:20:00,34.4,27.0,30.08,North,9,0.0,1.0,74,0.00,,,0.00,VWS V14.01,2013-03-30 09:20:00,
2013-03-30 05:25:00,34.3,26.6,30.08,South,186,0.0,0.0,73,0.00,,,0.00,VWS V14.01,2013-03-30 09:25:00,
2013-03-30 05:30:00,34.2,26.5,30.08,ENE,61,0.0,1.0,73,0.00,,,0.00,VWS V14.01,2013-03-30 09:30:00,
2013-03-30 05:34:00,33.8,26.1,30.08,ENE,61,0.0,1.0,73,0.00,,,0.00,VWS V14.01,2013-03-30 09:34:00,
2013-03-30 05:39:00,33.8,26.1,30.09,NNW,333,3.0,4.0,73,0.00,,,0.00,VWS V14.01,2013-03-30 09:39:00,
2013-03-30 05:44:00,34.2,26.1,30.09,NNW,342,0.0,4.0,72,0.00,,,0.00,VWS V14.01,2013-03-30 09:44:00,
2013-03-30 05:49:00,33.9,25.8,30.09,NNW,342,0.0,0.0,72,0.00,,,0.00,VWS V14.01,2013-03-30 09:49:00,
2013-03-30 05:54:00,33.7,26.0,30.09,NNW,342,0.0,0.0,73,0.00,,,0.00,VWS V14.01,2013-03-30 09:54:00,
2013-03-30 05:59:00,33.6,25.9,30.09,NNW,342,0.0,1.0,73,0.00,,,0.00,VWS V14.01,2013-03-30 09:59:00,
2013-03-30 06:04:00,33.5,25.8,30.09,NNW,342,0.0,1.0,73,0.00,,,0.00,VWS V14.01,2013-03-30 10:04:00,
2013-03-30 06:09:00,33.2,25.5,30.09,NNW,342,0.0,0.0,73,0.00,,,0.00,VWS V14.01,2013-03-30 10:09:00,
2013-03-30 06:14:00,32.9,25.5,30.09,SSW,192,3.0,3.0,74,0.00,,,0.00,VWS V14.01,2013-03-30 10:14:00,
2013-03-30 06:19:00,32.7,25.3,30.09,SSE,164,4.0,4.0,74,0.00,,,0.00,VWS V14.01,2013-03-30 10:19:00,
2013-03-30 06:24:00,32.6,25.6,30.10,SSE,164,0.0,4.0,75,0.00,,,0.00,VWS V14.01,2013-03-30 10:24:00,
2013-03-30 06:29:00,32.5,25.5,30.10,SE,141,0.0,4.0,75,0.00,,,0.00,VWS V14.01,2013-03-30 10:29:00,
2013-03-30 06:34:00,32.4,25.7,30.10,SE,140,2.0,5.0,76,0.00,,,0.00,VWS V14.01,2013-03-30 10:34:00,
2013-03-30 06:39:00,32.5,25.5,30.10,SSW,211,0.0,4.0,75,0.00,,,0.00,VWS V14.01,2013-03-30 10:39:00,
2013-03-30 06:44:00,32.6,25.6,30.10,ESE,112,0.0,4.0,75,0.00,,,0.00,VWS V14.01,2013-03-30 10:44:00,
2013-03-30 06:49:00,32.6,25.6,30.10,ESE,112,0.0,2.0,75,0.00,,,0.00,VWS V14.01,2013-03-30 10:49:00,
2013-03-30 06:54:00,32.5,25.5,30.10,ESE,112,0.0,2.0,75,0.00,,,0.00,VWS V14.01,2013-03-30 10:54:00,
2013-03-30 06:59:00,32.3,25.3,30.10,ESE,112,0.0,1.0,75,0.00,,,0.00,VWS V14.01,2013-03-30 10:59:00,
2013-03-30 07:04:00,32.2,25.2,30.11,ESE,113,0.0,2.0,75,0.00,,,0.00,VWS V14.01,2013-03-30 11:04:00,
2013-03-30 07:09:00,32.2,25.5,30.11,ESE,113,0.0,0.0,76,0.00,,,0.00,VWS V14.01,2013-03-30 11:09:00,
2013-03-30 07:14:00,32.2,25.2,30.10,NNE,12,1.0,3.0,75,0.00,,,0.00,VWS V14.01,2013-03-30 11:14:00,
2013-03-30 07:19:00,32.1,25.1,30.11,NNE,12,0.0,1.0,75,0.00,,,0.00,VWS V14.01,2013-03-30 11:19:00,
2013-03-30 07:24:00,32.3,25.3,30.11,West,281,0.0,5.0,75,0.00,,,0.00,VWS V14.01,2013-03-30 11:24:00,
2013-03-30 07:29:00,32.4,25.4,30.11,SW,219,0.0,3.0,75,0.00,,,0.00,VWS V14.01,2013-03-30 11:29:00,
2013-03-30 07:34:00,32.1,25.4,30.11,SW,219,0.0,3.0,76,0.00,,,0.00,VWS V14.01,2013-03-30 11:34:00,
2013-03-30 07:39:00,32.0,25.3,30.11,SW,219,0.0,2.0,76,0.00,,,0.00,VWS V14.01,2013-03-30 11:39:00,
2013-03-30 07:44:00,31.9,25.2,30.11,SW,219,1.0,2.0,76,0.00,,,0.00,VWS V14.01,2013-03-30 11:44:00,
2013-03-30 07:49:00,32.0,25.3,30.11,SW,219,0.0,0.0,76,0.00,,,0.00,VWS V14.01,2013-03-30 11:49:00,
2013-03-30 07:54:00,32.2,25.2,30.11,SW,219,0.0,1.0,75,0.00,,,0.00,VWS V14.01,2013-03-30 11:54:00,
2013-03-30 07:59:00,32.3,25.3,30.11,NW,321,0.0,1.0,75,0.00,,,0.00,VWS V14.01,2013-03-30 11:59:00,
2013-03-30 08:04:00,32.6,25.6,30.11,NW,321,0.0,1.0,75,0.00,,,0.00,VWS V14.01,2013-03-30 12:04:00,
2013-03-30 08:09:00,33.0,25.3,30.11,NW,316,0.0,3.0,73,0.00,,,0.00,VWS V14.01,2013-03-30 12:09:00,
2013-03-30 08:14:00,33.4,25.7,30.11,NW,316,1.0,3.0,73,0.00,,,0.00,VWS V14.01,2013-03-30 12:14:00,
2013-03-30 08:19:00,33.7,25.3,30.11,NW,315,1.0,2.0,71,0.00,,,0.00,VWS V14.01,2013-03-30 12:19:00,
2013-03-30 08:24:00,34.1,25.7,30.11,NNW,329,0.0,3.0,71,0.00,,,0.00,VWS V14.01,2013-03-30 12:24:00,
2013-03-30 08:29:00,34.6,25.5,30.11,WNW,296,2.0,4.0,69,0.00,,,0.00,VWS V14.01,2013-03-30 12:29:00,
2013-03-30 08:34:00,35.0,25.5,30.11,WNW,301,1.0,6.0,68,0.00,,,0.00,VWS V14.01,2013-03-30 12:34:00,
2013-03-30 08:39:00,35.3,25.8,30.11,WNW,303,0.0,3.0,68,0.00,,,0.00,VWS V14.01,2013-03-30 12:39:00,
2013-03-30 08:44:00,35.5,25.6,30.11,WNW,284,1.0,4.0,67,0.00,,,0.00,VWS V14.01,2013-03-30 12:44:00,
2013-03-30 08:49:00,35.6,25.7,30.11,West,277,2.0,5.0,67,0.00,,,0.00,VWS V14.01,2013-03-30 12:49:00,
2013-03-30 08:54:00,35.7,25.5,30.11,WNW,296,0.0,5.0,66,0.00,,,0.00,VWS V14.01,2013-03-30 12:54:00,
2013-03-30 08:59:00,35.9,25.7,30.11,WNW,295,3.0,3.0,66,0.00,,,0.00,VWS V14.01,2013-03-30 12:59:00,
2013-03-30 09:04:00,36.3,25.7,30.11,WNW,299,1.0,4.0,65,0.00,,,0.00,VWS V14.01,2013-03-30 13:04:00,
2013-03-30 09:09:00,36.5,25.1,30.11,West,269,2.0,4.0,63,0.00,,,0.00,VWS V14.01,2013-03-30 13:09:00,
2013-03-30 09:14:00,36.8,25.0,30.11,NW,318,1.0,6.0,62,0.00,,,0.00,VWS V14.01,2013-03-30 13:14:00,
2013-03-30 09:19:00,37.0,25.2,30.12,WSW,258,0.0,5.0,62,0.00,,,0.00,VWS V14.01,2013-03-30 13:19:00,
2013-03-30 09:24:00,37.2,25.0,30.11,NW,313,0.0,6.0,61,0.00,,,0.00,VWS V14.01,2013-03-30 13:24:00,
2013-03-30 09:29:00,37.3,24.7,30.12,NW,304,4.0,5.0,60,0.00,,,0.00,VWS V14.01,2013-03-30 13:29:00,
2013-03-30 09:34:00,37.6,24.2,30.12,WNW,296,5.0,6.0,58,0.00,,,0.00,VWS V14.01,2013-03-30 13:34:00,
2013-03-30 09:39:00,37.8,23.5,30.11,WNW,298,2.0,4.0,56,0.00,,,0.00,VWS V14.01,2013-03-30 13:39:00,
2013-03-30 09:44:00,38.0,23.7,30.11,NW,305,1.0,8.0,56,0.00,,,0.00,VWS V14.01,2013-03-30 13:44:00,
2013-03-30 09:49:00,38.2,23.9,30.12,WNW,302,3.0,6.0,56,0.00,,,0.00,VWS V14.01,2013-03-30 13:49:00,
2013-03-30 09:54:00,38.4,23.2,30.12,WNW,289,3.0,7.0,54,0.00,,,0.00,VWS V14.01,2013-03-30 13:54:00,
2013-03-30 09:59:00,38.6,23.0,30.11,WNW,301,3.0,6.0,53,0.00,,,0.00,VWS V14.01,2013-03-30 13:59:00,
2013-03-30 10:04:00,38.9,23.7,30.12,NW,321,3.0,6.0,54,0.00,,,0.00,VWS V14.01,2013-03-30 14:04:00,
2013-03-30 10:09:00,39.0,23.3,30.11,WNW,296,5.0,6.0,53,0.00,,,0.00,VWS V14.01,2013-03-30 14:09:00,
2013-03-30 10:14:00,39.4,23.2,30.12,West,280,3.0,6.0,52,0.00,,,0.00,VWS V14.01,2013-03-30 14:14:00,
2013-03-30 10:19:00,39.7,24.0,30.12,ENE,71,0.0,7.0,53,0.00,,,0.00,VWS V14.01,2013-03-30 14:19:00,
2013-03-30 10:24:00,40.0,23.4,30.12,WNW,301,5.0,7.0,51,0.00,,,0.00,VWS V14.01,2013-03-30 14:24:00,
2013-03-30 10:29:00,39.9,22.8,30.12,NNW,340,5.0,11.0,50,0.00,,,0.00,VWS V14.01,2013-03-30 14:29:00,
2013-03-30 10:34:00,40.2,23.1,30.12,WNW,292,6.0,11.0,50,0.00,,,0.00,VWS V14.01,2013-03-30 14:34:00,
2013-03-30 10:39:00,40.3,22.2,30.12,North,355,4.0,9.0,48,0.00,,,0.00,VWS V14.01,2013-03-30 14:39:00,
2013-03-30 10:44:00,40.4,22.3,30.12,NW,306,5.0,11.0,48,0.00,,,0.00,VWS V14.01,2013-03-30 14:44:00,
2013-03-30 10:49:00,40.5,21.9,30.12,North,360,7.0,8.0,47,0.00,,,0.00,VWS V14.01,2013-03-30 14:49:00,
2013-03-30 10:54:00,40.5,19.8,30.12,NNE,17,6.0,10.0,43,0.00,,,0.00,VWS V14.01,2013-03-30 14:54:00,
2013-03-30 10:59:00,40.9,20.7,30.12,NNE,13,6.0,10.0,44,0.00,,,0.00,VWS V14.01,2013-03-30 14:59:00,
2013-03-30 11:04:00,40.9,19.6,30.11,North,355,7.0,11.0,42,0.00,,,0.00,VWS V14.01,2013-03-30 15:04:00,
2013-03-30 11:09:00,40.9,19.0,30.11,NW,319,1.0,13.0,41,0.00,,,0.00,VWS V14.01,2013-03-30 15:09:00,
2013-03-30 11:14:00,40.9,19.0,30.12,NNW,348,6.0,14.0,41,0.00,,,0.00,VWS V14.01,2013-03-30 15:14:00,
2013-03-30 11:19:00,41.0,18.5,30.11,NW,311,4.0,10.0,40,0.00,,,0.00,VWS V14.01,2013-03-30 15:19:00,
2013-03-30 11:24:00,41.2,19.9,30.11,NNW,330,4.0,10.0,42,0.00,,,0.00,VWS V14.01,2013-03-30 15:24:00,
2013-03-30 11:29:00,41.4,18.9,30.11,NW,325,4.0,12.0,40,0.00,,,0.00,VWS V14.01,2013-03-30 15:29:00,
2013-03-30 11:34:00,41.4,19.5,30.11,NW,304,5.0,12.0,41,0.00,,,0.00,VWS V14.01,2013-03-30 15:34:00,
2013-03-30 11:39:00,41.5,19.6,30.11,NNE,16,6.0,13.0,41,0.00,,,0.00,VWS V14.01,2013-03-30 15:39:00,
2013-03-30 11:44:00,41.7,18.6,30.11,NW,319,8.0,13.0,39,0.00,,,0.00,VWS V14.01,2013-03-30 15:44:00,
2013-03-30 11:49:00,41.7,18.6,30.11,NNW,338,6.0,10.0,39,0.00,,,0.00,VWS V14.01,2013-03-30 15:49:00,
2013-03-30 11:54:00,41.9,18.2,30.11,North,360,3.0,10.0,38,0.00,,,0.00,VWS V14.01,2013-03-30 15:54:00,
2013-03-30 11:59:00,41.8,16.8,30.12,North,5,6.0,13.0,36,0.00,,,0.00,VWS V14.01,2013-03-30 15:59:00,
2013-03-30 12:04:00,42.1,19.5,30.11,WNW,302,5.0,13.0,40,0.00,,,0.00,VWS V14.01,2013-03-30 16:04:00,
2013-03-30 12:09:00,42.3,17.9,30.12,North,355,5.0,11.0,37,0.00,,,0.00,VWS V14.01,2013-03-30 16:09:00,
2013-03-30 12:14:00,42.4,19.8,30.11,North,355,8.0,13.0,40,0.00,,,0.00,VWS V14.01,2013-03-30 16:14:00,
2013-03-30 12:19:00,42.2,17.2,30.11,North,5,6.0,16.0,36,0.00,,,0.00,VWS V14.01,2013-03-30 16:19:00,
2013-03-30 12:24:00,42.2,17.8,30.11,WNW,301,5.0,16.0,37,0.00,,,0.00,VWS V14.01,2013-03-30 16:24:00,
2013-03-30 12:29:00,42.4,17.4,30.11,NW,306,4.0,8.0,36,0.00,,,0.00,VWS V14.01,2013-03-30 16:29:00,
2013-03-30 12:34:00,42.8,17.7,30.11,NW,318,1.0,8.0,36,0.00,,,0.00,VWS V14.01,2013-03-30 16:34:00,
2013-03-30 12:39:00,43.0,19.1,30.11,North,355,11.0,11.0,38,0.00,,,0.00,VWS V14.01,2013-03-30 16:39:00,
2013-03-30 12:44:00,42.8,17.7,30.11,North,351,8.0,11.0,36,0.00,,,0.00,VWS V14.01,2013-03-30 16:44:00,
2013-03-30 12:49:00,43.3,17.5,30.10,North,355,0.0,5.0,35,0.00,,,0.00,VWS V14.01,2013-03-30 16:49:00,
2013-03-30 12:54:00,44.4,18.5,30.10,North,5,6.0,7.0,35,0.00,,,0.00,VWS V14.01,2013-03-30 16:54:00,
2013-03-30 12:59:00,44.0,18.1,30.10,North,355,1.0,8.0,35,0.00,,,0.00,VWS V14.01,2013-03-30 16:59:00,
2013-03-30 13:04:00,44.3,17.0,30.10,North,355,1.0,8.0,33,0.00,,,0.00,VWS V14.01,2013-03-30 17:04:00,
2013-03-30 13:09:00,44.7,18.1,30.10,NNW,335,1.0,7.0,34,0.00,,,0.00,VWS V14.01,2013-03-30 17:09:00,
2013-03-30 13:14:00,45.0,18.3,30.10,NNE,28,0.0,7.0,34,0.00,,,0.00,VWS V14.01,2013-03-30 17:14:00,
2013-03-30 13:19:00,44.5,17.2,30.10,North,355,6.0,11.0,33,0.00,,,0.00,VWS V14.01,2013-03-30 17:19:00,
2013-03-30 13:24:00,44.0,16.8,30.10,NW,325,2.0,12.0,33,0.00,,,0.00,VWS V14.01,2013-03-30 17:24:00,
2013-03-30 13:29:00,44.2,16.9,30.10,NW,321,7.0,8.0,33,0.00,,,0.00,VWS V14.01,2013-03-30 17:29:00,
2013-03-30 13:34:00,43.8,15.9,30.10,NW,314,6.0,11.0,32,0.00,,,0.00,VWS V14.01,2013-03-30 17:34:00,
2013-03-30 13:39:00,43.4,14.8,30.10,NNW,329,6.0,13.0,31,0.00,,,0.00,VWS V14.01,2013-03-30 17:39:00,
2013-03-30 13:44:00,43.5,15.6,30.10,WNW,292,7.0,13.0,32,0.00,,,0.00,VWS V14.01,2013-03-30 17:44:00,
2013-03-30 13:49:00,43.5,14.9,30.09,NNW,341,3.0,10.0,31,0.00,,,0.00,VWS V14.01,2013-03-30 17:49:00,
2013-03-30 13:54:00,43.7,16.5,30.09,NW,324,5.0,10.0,33,0.00,,,0.00,VWS V14.01,2013-03-30 17:54:00,
2013-03-30 13:59:00,43.7,16.5,30.09,NNW,342,6.0,16.0,33,0.00,,,0.00,VWS V14.01,2013-03-30 17:59:00,
2013-03-30 14:04:00,43.9,16.7,30.09,NW,323,8.0,16.0,33,0.00,,,0.00,VWS V14.01,2013-03-30 18:04:00,
2013-03-30 14:09:00,43.5,14.1,30.09,WNW,301,8.0,15.0,30,0.00,,,0.00,VWS V14.01,2013-03-30 18:09:00,
2013-03-30 14:20:00,44.0,14.6,30.09,North,9,6.0,12.0,30,0.00,,,0.00,VWS V14.01,2013-03-30 18:20:00,
2013-03-30 14:25:00,44.6,15.9,30.09,NNW,346,1.0,4.0,31,0.00,,,0.00,VWS V14.01,2013-03-30 18:25:00,
2013-03-30 14:30:00,44.9,16.1,30.09,NNE,22,4.0,9.0,31,0.00,,,0.00,VWS V14.01,2013-03-30 18:30:00,
2013-03-30 14:35:00,44.9,14.6,30.08,NW,307,4.0,4.0,29,0.00,,,0.00,VWS V14.01,2013-03-30 18:35:00,
2013-03-30 14:40:00,45.1,17.7,30.08,North,349,10.0,12.0,33,0.00,,,0.00,VWS V14.01,2013-03-30 18:40:00,
2013-03-30 14:45:00,45.0,13.9,30.08,NNW,346,9.0,10.0,28,0.00,,,0.00,VWS V14.01,2013-03-30 18:45:00,
2013-03-30 14:50:00,44.9,13.0,30.09,NNW,331,0.0,10.0,27,0.00,,,0.00,VWS V14.01,2013-03-30 18:50:00,
2013-03-30 14:55:00,45.1,14.0,30.08,North,360,6.0,7.0,28,0.00,,,0.00,VWS V14.01,2013-03-30 18:55:00,
2013-03-30 15:00:00,44.9,13.0,30.08,North,355,4.0,12.0,27,0.00,,,0.00,VWS V14.01,2013-03-30 19:00:00,
2013-03-30 15:05:00,45.3,15.7,30.08,NNE,12,3.0,6.0,30,0.00,,,0.00,VWS V14.01,2013-03-30 19:05:00,
2013-03-30 15:10:00,45.3,13.3,30.08,North,9,7.0,16.0,27,0.00,,,0.00,VWS V14.01,2013-03-30 19:10:00,
2013-03-30 15:15:00,45.2,12.4,30.08,North,350,0.0,1.0,26,0.00,,,0.00,VWS V14.01,2013-03-30 19:15:00,
2013-03-30 15:20:00,45.5,14.3,30.08,WNW,294,6.0,10.0,28,0.00,,,0.00,VWS V14.01,2013-03-30 19:20:00,
2013-03-30 15:25:00,45.3,14.9,30.08,NNE,22,7.0,9.0,29,0.00,,,0.00,VWS V14.01,2013-03-30 19:25:00,
2013-03-30 15:30:00,45.2,14.1,30.08,NNW,346,8.0,13.0,28,0.00,,,0.00,VWS V14.01,2013-03-30 19:30:00,
2013-03-30 15:35:00,45.4,14.2,30.08,NNW,342,5.0,5.0,28,0.00,,,0.00,VWS V14.01,2013-03-30 19:35:00,
2013-03-30 15:40:00,45.4,14.2,30.08,NNW,340,9.0,13.0,28,0.00,,,0.00,VWS V14.01,2013-03-30 19:40:00,
2013-03-30 15:45:00,45.5,13.5,30.08,NNW,339,4.0,9.0,27,0.00,,,0.00,VWS V14.01,2013-03-30 19:45:00,
2013-03-30 15:50:00,45.4,12.5,30.08,NNW,348,1.0,9.0,26,0.00,,,0.00,VWS V14.01,2013-03-30 19:50:00,
2013-03-30 15:55:00,45.8,13.7,30.08,NW,321,0.0,3.0,27,0.00,,,0.00,VWS V14.01,2013-03-30 19:55:00,
2013-03-30 16:00:00,46.3,14.2,30.07,North,355,7.0,10.0,27,0.00,,,0.00,VWS V14.01,2013-03-30 20:00:00,
2013-03-30 16:05:00,45.6,13.6,30.08,North,360,6.0,7.0,27,0.00,,,0.00,VWS V14.01,2013-03-30 20:05:00,
2013-03-30 16:10:00,45.6,15.2,30.07,NNW,345,4.0,12.0,29,0.00,,,0.00,VWS V14.01,2013-03-30 20:10:00,
2013-03-30 16:15:00,45.5,12.6,30.07,NNW,327,7.0,8.0,26,0.00,,,0.00,VWS V14.01,2013-03-30 20:15:00,
2013-03-30 16:20:00,45.5,15.1,30.07,East,87,2.0,14.0,29,0.00,,,0.00,VWS V14.01,2013-03-30 20:20:00,
2013-03-30 16:25:00,45.7,13.6,30.07,NNW,346,3.0,4.0,27,0.00,,,0.00,VWS V14.01,2013-03-30 20:25:00,
2013-03-30 16:30:00,45.5,13.5,30.07,NNW,329,2.0,9.0,27,0.00,,,0.00,VWS V14.01,2013-03-30 20:30:00,
2013-03-30 16:35:00,45.2,13.2,30.07,NNE,14,9.0,9.0,27,0.00,,,0.00,VWS V14.01,2013-03-30 20:35:00,
2013-03-30 16:40:00,45.4,13.4,30.07,West,273,0.0,11.0,27,0.00,,,0.00,VWS V14.01,2013-03-30 20:40:00,
2013-03-30 16:45:00,45.3,12.4,30.07,NNW,338,6.0,6.0,26,0.00,,,0.00,VWS V14.01,2013-03-30 20:45:00,
2013-03-30 16:50:00,45.7,16.1,30.07,West,279,3.0,8.0,30,0.00,,,0.00,VWS V14.01,2013-03-30 20:50:00,
2013-03-30 16:55:00,46.0,13.1,30.07,NNW,334,3.0,5.0,26,0.00,,,0.00,VWS V14.01,2013-03-30 20:55:00,
2013-03-30 17:00:00,46.0,14.7,30.07,NE,34,3.0,10.0,28,0.00,,,0.00,VWS V14.01,2013-03-30 21:00:00,
2013-03-30 17:05:00,45.9,13.8,30.07,NNW,347,0.0,0.0,27,0.00,,,0.00,VWS V14.01,2013-03-30 21:05:00,
2013-03-30 17:10:00,46.1,14.8,30.07,NNW,341,0.0,7.0,28,0.00,,,0.00,VWS V14.01,2013-03-30 21:10:00,
2013-03-30 17:15:00,46.1,14.0,30.07,North,9,5.0,5.0,27,0.00,,,0.00,VWS V14.01,2013-03-30 21:15:00,
2013-03-30 17:20:00,45.7,12.8,30.07,North,355,7.0,11.0,26,0.00,,,0.00,VWS V14.01,2013-03-30 21:20:00,
2013-03-30 17:25:00,45.8,15.4,30.07,North,5,0.0,0.0,29,0.00,,,0.00,VWS V14.01,2013-03-30 21:25:00,
2013-03-30 17:30:00,45.7,13.6,30.07,WNW,300,6.0,12.0,27,0.00,,,0.00,VWS V14.01,2013-03-30 21:30:00,
2013-03-30 17:35:00,45.5,12.6,30.07,North,355,4.0,5.0,26,0.00,,,0.00,VWS V14.01,2013-03-30 21:35:00,
2013-03-30 17:40:00,45.4,14.2,30.07,NW,318,0.0,8.0,28,0.00,,,0.00,VWS V14.01,2013-03-30 21:40:00,
2013-03-30 17:45:00,45.6,15.2,30.07,WNW,300,5.0,5.0,29,0.00,,,0.00,VWS V14.01,2013-03-30 21:45:00,
2013-03-30 17:50:00,45.6,14.4,30.07,NW,313,1.0,5.0,28,0.00,,,0.00,VWS V14.01,2013-03-30 21:50:00,
2013-03-30 17:55:00,45.6,17.5,30.07,NNE,15,2.0,2.0,32,0.00,,,0.00,VWS V14.01,2013-03-30 21:55:00,
2013-03-30 18:00:00,45.4,15.0,30.07,NNW,334,2.0,5.0,29,0.00,,,0.00,VWS V14.01,2013-03-30 22:00:00,
2013-03-30 18:05:00,45.4,14.2,30.07,North,355,0.0,2.0,28,0.00,,,0.00,VWS V14.01,2013-03-30 22:05:00,
2013-03-30 18:10:00,45.4,17.3,30.07,North,350,0.0,4.0,32,0.00,,,0.00,VWS V14.01,2013-03-30 22:10:00,
2013-03-30 18:15:00,45.2,15.6,30.07,North,350,0.0,1.0,30,0.00,,,0.00,VWS V14.01,2013-03-30 22:15:00,
2013-03-30 18:20:00,45.1,14.0,30.08,NNW,346,5.0,8.0,28,0.00,,,0.00,VWS V14.01,2013-03-30 22:20:00,
2013-03-30 18:25:00,45.0,13.9,30.08,NNW,346,1.0,1.0,28,0.00,,,0.00,VWS V14.01,2013-03-30 22:25:00,
2013-03-30 18:30:00,45.0,16.9,30.08,North,351,0.0,4.0,32,0.00,,,0.00,VWS V14.01,2013-03-30 22:30:00,
2013-03-30 18:35:00,44.6,16.6,30.08,North,355,5.0,5.0,32,0.00,,,0.00,VWS V14.01,2013-03-30 22:35:00,
2013-03-30 18:40:00,44.5,14.2,30.08,North,355,2.0,5.0,29,0.00,,,0.00,VWS V14.01,2013-03-30 22:40:00,
2013-03-30 18:45:00,44.1,15.4,30.08,North,355,0.0,0.0,31,0.00,,,0.00,VWS V14.01,2013-03-30 22:45:00,
2013-03-30 18:50:00,43.7,13.5,30.08,North,351,3.0,6.0,29,0.00,,,0.00,VWS V14.01,2013-03-30 22:50:00,
2013-03-30 18:55:00,43.5,15.6,30.08,North,350,0.0,0.0,32,0.00,,,0.00,VWS V14.01,2013-03-30 22:55:00,
2013-03-30 19:00:00,43.1,13.8,30.08,North,350,0.0,3.0,30,0.00,,,0.00,VWS V14.01,2013-03-30 23:00:00,
2013-03-30 19:05:00,42.5,14.0,30.08,North,350,0.0,0.0,31,0.00,,,0.00,VWS V14.01,2013-03-30 23:05:00,
2013-03-30 19:10:00,41.8,13.4,30.08,North,350,0.0,0.0,31,0.00,,,0.00,VWS V14.01,2013-03-30 23:10:00,
2013-03-30 19:15:00,41.3,13.7,30.08,North,350,0.0,0.0,32,0.00,,,0.00,VWS V14.01,2013-03-30 23:15:00,
2013-03-30 19:20:00,40.6,13.8,30.09,North,350,0.0,1.0,33,0.00,,,0.00,VWS V14.01,2013-03-30 23:20:00,
2013-03-30 19:25:00,40.0,13.2,30.08,North,350,0.0,0.0,33,0.00,,,0.00,VWS V14.01,2013-03-30 23:25:00,
2013-03-30 19:30:00,39.6,13.6,30.09,North,350,0.0,0.0,34,0.00,,,0.00,VWS V14.01,2013-03-30 23:30:00,
2013-03-30 19:35:00,39.2,13.2,30.09,North,350,0.0,0.0,34,0.00,,,0.00,VWS V14.01,2013-03-30 23:35:00,
2013-03-30 19:40:00,39.0,13.0,30.09,North,350,0.0,0.0,34,0.00,,,0.00,VWS V14.01,2013-03-30 23:40:00,
2013-03-30 19:45:00,39.0,13.0,30.09,North,350,0.0,0.0,34,0.00,,,0.00,VWS V14.01,2013-03-30 23:45:00,
2013-03-30 19:50:00,38.9,12.9,30.09,North,350,0.0,0.0,34,0.00,,,0.00,VWS V14.01,2013-03-30 23:50:00,
2013-03-30 19:55:00,38.9,12.9,30.09,North,350,0.0,0.0,34,0.00,,,0.00,VWS V14.01,2013-03-30 23:55:00,
2013-03-30 20:00:00,38.7,13.4,30.10,North,350,0.0,0.0,35,0.00,,,0.00,VWS V14.01,2013-03-31 00:00:00,
2013-03-30 20:05:00,38.4,13.1,30.10,North,350,0.0,0.0,35,0.00,,,0.00,VWS V14.01,2013-03-31 00:05:00,
2013-03-30 20:10:00,38.1,13.5,30.10,North,350,0.0,0.0,36,0.00,,,0.00,VWS V14.01,2013-03-31 00:10:00,
2013-03-30 20:14:00,38.0,13.4,30.10,North,350,0.0,0.0,36,0.00,,,0.00,VWS V14.01,2013-03-31 00:14:00,
2013-03-30 20:19:00,37.8,13.3,30.10,North,350,0.0,0.0,36,0.00,,,0.00,VWS V14.01,2013-03-31 00:19:00,
2013-03-30 20:24:00,37.8,13.3,30.10,North,350,0.0,0.0,36,0.00,,,0.00,VWS V14.01,2013-03-31 00:24:00,
2013-03-30 20:29:00,37.6,13.1,30.10,North,350,0.0,1.0,36,0.00,,,0.00,VWS V14.01,2013-03-31 00:29:00,
2013-03-30 20:34:00,37.5,13.6,30.10,North,350,0.0,1.0,37,0.00,,,0.00,VWS V14.01,2013-03-31 00:34:00,
2013-03-30 20:39:00,37.6,13.7,30.10,North,350,0.0,1.0,37,0.00,,,0.00,VWS V14.01,2013-03-31 00:39:00,
2013-03-30 20:44:00,37.5,13.6,30.11,North,350,0.0,1.0,37,0.00,,,0.00,VWS V14.01,2013-03-31 00:44:00,
2013-03-30 20:49:00,37.3,14.0,30.11,North,350,0.0,1.0,38,0.00,,,0.00,VWS V14.01,2013-03-31 00:49:00,
2013-03-30 20:54:00,37.3,14.0,30.11,North,350,0.0,1.0,38,0.00,,,0.00,VWS V14.01,2013-03-31 00:54:00,
2013-03-30 20:59:00,37.4,14.1,30.11,North,350,0.0,2.0,38,0.00,,,0.00,VWS V14.01,2013-03-31 00:59:00,
2013-03-30 21:04:00,37.5,14.2,30.11,North,350,0.0,2.0,38,0.00,,,0.00,VWS V14.01,2013-03-31 01:04:00,
2013-03-30 21:09:00,37.5,14.2,30.11,North,350,0.0,0.0,38,0.00,,,0.00,VWS V14.01,2013-03-31 01:09:00,
2013-03-30 21:14:00,37.3,14.0,30.11,North,350,0.0,1.0,38,0.00,,,0.00,VWS V14.01,2013-03-31 01:14:00,
2013-03-30 21:19:00,37.2,13.9,30.11,North,350,0.0,0.0,38,0.00,,,0.00,VWS V14.01,2013-03-31 01:19:00,
2013-03-30 21:24:00,37.1,13.9,30.11,North,350,0.0,0.0,38,0.00,,,0.00,VWS V14.01,2013-03-31 01:24:00,
2013-03-30 21:29:00,37.0,17.1,30.11,North,350,0.0,0.0,44,0.00,,,0.00,VWS V14.01,2013-03-31 01:29:00,
2013-03-30 21:34:00,36.5,14.5,30.11,North,350,0.0,0.0,40,0.00,,,0.00,VWS V14.01,2013-03-31 01:34:00,
2013-03-30 21:39:00,36.4,14.4,30.11,North,350,0.0,1.0,40,0.00,,,0.00,VWS V14.01,2013-03-31 01:39:00,
2013-03-30 21:44:00,36.5,13.9,30.11,North,350,0.0,1.0,39,0.00,,,0.00,VWS V14.01,2013-03-31 01:44:00,
2013-03-30 21:49:00,36.6,14.0,30.11,North,350,0.0,0.0,39,0.00,,,0.00,VWS V14.01,2013-03-31 01:49:00,
2013-03-30 21:54:00,36.5,14.5,30.11,North,350,0.0,0.0,40,0.00,,,0.00,VWS V14.01,2013-03-31 01:54:00,
2013-03-30 21:59:00,36.2,14.2,30.11,North,350,0.0,0.0,40,0.00,,,0.00,VWS V14.01,2013-03-31 01:59:00,
2013-03-30 22:04:00,35.9,13.9,30.11,North,350,0.0,0.0,40,0.00,,,0.00,VWS V14.01,2013-03-31 02:04:00,
2013-03-30 22:09:00,35.5,14.1,30.11,North,350,0.0,0.0,41,0.00,,,0.00,VWS V14.01,2013-03-31 02:09:00,
2013-03-30 22:15:00,35.2,18.4,30.11,North,350,0.0,0.0,50,0.00,,,0.00,VWS V14.01,2013-03-31 02:15:00,
2013-03-30 22:20:00,34.6,15.5,30.12,North,350,0.0,0.0,45,0.00,,,0.00,VWS V14.01,2013-03-31 02:20:00,
2013-03-30 22:25:00,34.2,14.1,30.12,North,350,0.0,0.0,43,0.00,,,0.00,VWS V14.01,2013-03-31 02:25:00,
2013-03-30 22:30:00,34.1,14.5,30.12,North,350,0.0,0.0,44,0.00,,,0.00,VWS V14.01,2013-03-31 02:30:00,
2013-03-30 22:35:00,34.0,14.9,30.12,North,350,0.0,0.0,45,0.00,,,0.00,VWS V14.01,2013-03-31 02:35:00,
2013-03-30 22:40:00,33.7,14.1,30.12,North,350,0.0,0.0,44,0.00,,,0.00,VWS V14.01,2013-03-31 02:40:00,
2013-03-30 22:45:00,33.6,17.4,30.12,North,350,0.0,0.0,51,0.00,,,0.00,VWS V14.01,2013-03-31 02:45:00,
2013-03-30 22:50:00,33.2,15.2,30.12,North,350,0.0,0.0,47,0.00,,,0.00,VWS V14.01,2013-03-31 02:50:00,
2013-03-30 22:55:00,33.0,15.0,30.12,North,350,0.0,0.0,47,0.00,,,0.00,VWS V14.01,2013-03-31 02:55:00,
2013-03-30 23:00:00,32.9,15.4,30.12,North,350,0.0,0.0,48,0.00,,,0.00,VWS V14.01,2013-03-31 03:00:00,
2013-03-30 23:05:00,32.8,14.8,30.12,North,350,0.0,0.0,47,0.00,,,0.00,VWS V14.01,2013-03-31 03:05:00,
2013-03-30 23:10:00,32.7,14.7,30.12,North,350,0.0,0.0,47,0.00,,,0.00,VWS V14.01,2013-03-31 03:10:00,
2013-03-30 23:15:00,32.6,14.6,30.11,North,350,0.0,0.0,47,0.00,,,0.00,VWS V14.01,2013-03-31 03:15:00,
2013-03-30 23:20:00,32.6,15.6,30.11,North,350,0.0,1.0,49,0.00,,,0.00,VWS V14.01,2013-03-31 03:20:00,
2013-03-30 23:25:00,32.7,14.7,30.11,North,350,0.0,0.0,47,0.00,,,0.00,VWS V14.01,2013-03-31 03:25:00,
2013-03-30 23:30:00,32.6,16.5,30.11,North,350,0.0,0.0,51,0.00,,,0.00,VWS V14.01,2013-03-31 03:30:00,
2013-03-30 23:35:00,32.5,15.0,30.11,North,350,0.0,0.0,48,0.00,,,0.00,VWS V14.01,2013-03-31 03:35:00,
2013-03-30 23:40:00,32.6,15.1,30.11,North,350,0.0,1.0,48,0.00,,,0.00,VWS V14.01,2013-03-31 03:40:00,
2013-03-30 23:45:00,32.5,16.9,30.11,North,350,0.0,0.0,52,0.00,,,0.00,VWS V14.01,2013-03-31 03:45:00,
2013-03-30 23:50:00,32.3,15.3,30.11,North,350,0.0,0.0,49,0.00,,,0.00,VWS V14.01,2013-03-31 03:50:00,
2013-03-30 23:55:00,32.2,14.7,30.11,North,350,0.0,0.0,48,0.00,,,0.00,VWS V14.01,2013-03-31 03:55:00,